カタログに戻る

PEGASUS DEB

運用中PO
NORAD 39319·DEBRIS·🇺🇸 United States

打ち上げ May 19, 1994 から Vandenberg Space Force Base

Loading…

次のパス (今後24時間)

TLE

経年Source: Space-Track

元期: Sep 10, 2026, 10:22 UTC

1 39319U 94029AFE 26253.43222519  .00000741  00000-0  98839-4 0  9998
2 39319  81.9441 316.3031 0179615  14.9431 345.6981 14.67639541290836

AllMySatでPEGASUS DEBをリアルタイム追跡

Download on the App Store